Regional Weather Roundup
Issued by NWS Lake Charles, LA

Home | Current Version | Previous Version | Text Only | Print | Product List | Glossary On
Versions: 1 2 3 4 5 6 7 8 9 10 11 12 13 14 15 16 17 18 19 20 21 22 23 24 25 26 27 28 29 30 31 32 33 34 35 36 37 38 39 40 41 42 43 44 45 46 47 48 49 50
370
ASUS44 KLCH 290210
RWRLCH
REGIONAL WEATHER ROUNDUP
NATIONAL WEATHER SERVICE LAKE CHARLES LA
900 PM CDT WED JUN 28 2017

Note: "fair" indicates few or no clouds below 12,000 feet with no
significant weather and/or obstructions to visibility.


ACROSS SOUTHEAST TEXAS

CITY           SKY/WX    TMP DP  RH WIND       PRES   REMARKS
BEAUMONT       PTCLDY    79  72  79 E12       29.87S
BEAUMONT CITY  FAIR     N/A N/A N/A MISG      29.88S
ORANGE         MOCLDY    78  72  81 E5        29.90S
JASPER           N/A     79  73  81 CALM      29.92R
$$

ACROSS CENTRAL LOUISIANA

CITY           SKY/WX    TMP DP  RH WIND       PRES   REMARKS
LEESVILLE      CLOUDY    77  71  80 SE8       29.90R
FULLERTON      FAIR      77  72  84 VRB3      29.89R
ALEXANDRIA INT CLOUDY    77  71  82 SE12      29.91R
ESLER FIELD    CLOUDY    75  72  90 SE7       29.93S
DERIDDER       FAIR      77  73  85 E7        29.92S
OAKDALE        MOCLDY    76  72  88 CALM      29.92S
OPELOUSAS      CLOUDY    75  72  88 SE6       29.95R
$$

ACROSS SOUTHWEST AND SOUTH CENTRAL LOUISIANA

CITY           SKY/WX    TMP DP  RH WIND       PRES   REMARKS
SULPHUR        CLOUDY    76  74  91 E7        29.90R
LAKE CHARLES   CLOUDY    76  76 100 E6        29.89R
CHENNAULT INT  CLOUDY    75  73  94 E6        29.90S
CAMERON PHI    MOCLDY    79  72  78 SE8       29.87S
DEQUINCY       MOCLDY    77  71  83 E8        29.90S
JENNINGS       MOCLDY    74  73  95 E10       29.92R
LAFAYETTE      LGT RAIN  74  73  97 CALM      29.95S FOG
NEW IBERIA     HVY RAIN  74  71  91 E7        29.95S FOG
ABBEVILLE      LGT RAIN  73  73 100 E5        29.94R
PATTERSON      CLOUDY    74  73  97 E5        29.96R
SALT POINT       N/A     77  74  90 SE5       29.93R
$$

SELECTED SITES ACROSS THE REGION

CITY           SKY/WX    TMP DP  RH WIND       PRES   REMARKS
HOUSTON BUSH   PTCLDY    80  72  76 E10       29.86R
HOUSTON HOBBY  PTCLDY    82  74  76 E10       29.85R
GALVESTON      PTCLDY    81  76  84 E7        29.85S
COLLEGE STAT   CLEAR     84  71  65 E9        29.84S
CONROE         CLEAR     79  72  79 SE9       29.86S
HUNTSVILLE     CLEAR     82  71  69 SE3       29.86S
LUFKIN         PTCLDY    78  72  81 SE6       29.87S
SHREVEPORT     PTCLDY    82  71  69 SE8       29.88R
MONROE         CLEAR     80  70  71 VRB7      29.93R
NATCHEZ MS     CLOUDY    74  71  91 SE6       29.97R
BATON ROUGE    CLOUDY    75  72  90 E5        29.97R
N.O. INTL ARPT CLOUDY    78  71  79 E9        29.97S
SLIDELL        LGT RAIN  76  72  87 NE3       29.98F
$$

MARINE REPORTS

STATION/POSITION TIME  SKY/WX   TEMP    WIND        PRES    VSBY
                                AIR SEA DIR/SP/G
                 (UTC)          (F)     (DEG/KT/KT) (MB)    (MI)
BUOY 30 S HIGH I 0150            80 83  120/  8/  8 1011.0R
WVE H/P(F/S)=  4/ 7

SEA RIM ST PARK  0200            77      70/  6/  7 1012.0R
PORT ARTHUR      0148            79 84   90/  6/  9 1012.0R
SABINE PASS N    0148            80 86   90/  8/ 12 1013.2R
TEXAS POINT      NOT AVBL
CALCASIEU PASS   0148            78 83  160/  9/ 11   N/A
LK CHARLES BEACH 0148            76 82              1012.7R
MARSH ISLAND     0100            78                   N/A
FRESH WATER LOCK 0148            77 81  130/  8/ 11 1013.2R
AMERADA PASS     0148            76 80  100/  2/  3 1013.7R
$$




USA.gov is the U.S. government's official web portal to all federal, state and local government web resources and services.